sat.trackr.live / text

‹ back to catalog

STARLINK-32105

NORAD 59689 · 2024-086H

PAYLOAD ACTIVE UNKNOWN

§ Identity

Operator
Country
US
Launch date
2024-05-08
Launch site
AFETR
Launch vehicle
Mass (kg)
RCS (m²)

Purposes: comms

External: N2YO · Heavens-Above · Gunter

§ Orbital elements

Epoch: 2026-09-21T15:24:46.304640Z

Period
94.27 min
Inclination
42.9993°
Eccentricity
0.0000399
Mean motion
15.27559695 rev/d
Perigee alt
482.8 km
Apogee alt
483.4 km
Semi-major
6,861.2 km
B*
1.8446e-4
RAAN
32.9945°
Arg perigee
222.1433°
Mean anomaly
137.9388°
Rev number
13,408

§ Raw data

STARLINK-321051 59689U 24086H   26264.64220260  .00004814  00000+0  18446-3 0  99912 59689  42.9993  32.9945 0000399 222.1433 137.9388 15.27559695134084

JSON: /api/v1/satellites/59689 · /tle

For live sub-satellite position, see the globe view (requires WebGL).

§ Visibility from observer

Set your observer location to see the next 7 days of passes ≥ 10°. The values pass through the URL so the page stays shareable.

No JS? Fill the form by hand. The geolocation button needs JavaScript.